SCP
-0 -0 -0 -0 -0 0 0 0 0 0 0 -0 0 0 0 0 0 0 0 0 0 0 0 0 0 0 0 0 0 0 0 0 0 0 0 0 0 0 0 0 0 0 0 0
0 -0 -0 -0 -0 -0 -0 -0 -0 -0 0 -0 0 0 0 0 0 0 0 0 0 0 0 0 0 0 0 0 0 0 0 0 0 0 0 0 0 0 0 0 0 0 0 0
0 0 0 0 0 -0 -0 0 0 0 0 0 0 0 0 0 0 0 0 0 0 0 0 0 0 0 0 0 0 0 0 0 0 0 0 0 0 0 0 0 0 0 0 0
0 0 0 0 0 0 0 0 0 0 0 0 0 0 0 0 0 0 0 0 0 0 0 0 0 0 0 0 0 0 0 0 0 0 0 0 0 0 0 0 0 0 0 0
0 0 0 0 0 0 0 0 0 0 0 0 0 0 0 0 0 0 0 0 0 0 0 0 0 0 0 0 0 0 0 0 0 0 0 0 0 0 0 0 0 0 0 0
0 0 0 0 0 0 0 0 0 0 0 0 0 0 0 0 0 0 0 0 0 0 0 0 0 0 0 0 0 0 0 0 0 0 0 0 0 0 0 0 0 0 0 0
0 0 0 0 0 0 0 0 0 0 0 0 0 0 0 0 0 0 0 0 0 0 0 0 0 0 0 0 0 0 0 0 0 0 0 0 0 0 0 0 0 0 0 0
0 0 0 0 0 0 0 0 0 0 0 0 0 0 0 0 0 0 0 0 0 0 0 0 0 0 0 0 0 0 0 0 0 0 0 0 0 0 0 0 0 0 0 0
0 0 0 0 0 0 0 0 0 0 0 0 0 0 0 0 0 0 0 0 0 0 0 -0 0 0 0 0 0 0 0 -0 -0 -0 0 0 0 0 0 0 0 0 0 0
0 0 0 0 0 0 0 0 0 0 0 0 0 0 0 0 0 0 0 0 0 0 -0 0 0 0 0 0 0 0 -0 -0 -0 0 0 0 0 0 0 0 0 0 0 0
0 0 0 0 0 0 0 0 0 0 0 0 0 0 0 0 0 0 0 0 0 -0 0 0 0 0 0 0 -0 -0 -0 -0 -0 0 0 0 0 0 0 0 0 0 0 0
0 0 0 0 0 0 0 0 0 0 0 0 0 0 0 0 0 0 0 0 -0 -0 0 0 0 0 -0 -0 -0 -0 -0 0 0 0 0 0 0 0 0 0 0 0 0 0
0 0 0 0 0 0 0 0 0 0 0 0 0 0 0 0 0 0 0 0 0 0 0 0 -0 -0 -0 -0 -0 -0 0 0 0 0 0 0 0 0 0 0 0 0 0 0
0 0 0 0 0 0 0 0 0 0 0 0 0 0 0 0 0 0 0 0 0 0 0 -0 -0 -0 -0 -0 -0 -0 0 0 0 0 0 0 0 0 0 0 0 0 0 0
0 0 0 0 0 0 0 0 0 0 0 0 0 0 0 0 0 0 0 0 0 0 -0 -0 -0 -0 -0 -0 -0 0 0 0 0 0 0 0 0 0 0 0 0 0 0 0
0 0 0 0 0 0 0 0 0 0 0 0 0 0 0 0 0 0 0 0 0 -0 -0 0 0 0 -0 -0 0 0 0 0 0 0 0 0 0 0 0 0 0 0 0 0
0 0 0 0 0 0 0 0 0 0 0 0 0 0 0 0 0 0 0 0 -0 0 0 0 0 0 0 0 0 0 0 0 0 0 0 0 0 0 0 0 0 0 0 0
0 0 0 0 0 0 0 0 0 0 0 0 0 0 0 0 0 0 0 0 0 0 0 0 0 0 0 0 0 0 0 0 0 0 0 0 0 0 0 0 0 0 0 0
0 0 0 0 0 0 0 0 0 0 0 0 0 0 0 0 0 0 0 0 0 0 0 0 0 0 0 0 0 0 0 0 0 0 0 0 0 0 0 0 0 0 0 0
0 0 0 0 0 0 0 0 0 0 0 0 0 0 0 0 0 0 0 0 0 0 0 0 0 0 0 0 0 0 0 0 0 0 0 0 0 0 0 0 0 0 0 0
0 0 0 0 0 0 0 0 0 0 0 0 0 0 0 0 0 0 0 0 0 0 0 0 0 0 0 0 0 0 0 0 0 0 0 0 0 0 0 0 0 0 0 0
0 0 0 0 0 0 0 0 0 0 0 0 0 0 0 0 0 0 0 0 0 0 0 0 0 0 0 0 0 0 0 0 0 0 0 0 0 0 0 0 0 0 0 0
0 0 0 0 0 0 0 0 0 0 0 0 0 0 0 0 0 0 0 0 0 0 0 0 0 0 0 0 0 0 0 0 0 0 0 0 0 0 0 0 0 0 0 0
0 0 0 0 0 0 0 0 0 0 0 0 0 0 0 0 0 0 0 0 0 0 0 0 0 0 0 0 0 0 0 0 0 0 0 0 0 0 0 0 0 0 0 0
0 0 0 0 0 0 0 0 0 0 0 0 0 0 0 0 0 0 0 0 0 0 0 0 0 0 0 0 0 0 0 0 0 0 0 0 0 0 0 0 0 0 0 0
0 0 0 0 0 0 0 0 0 0 0 0 0 0 0 0 0 0 0 0 0 0 0 0 0 0 0 0 0 0 0 0 0 0 0 0 0 0 0 0 0 0 0 0
Wind_Speed_500mb
17 18 15 16 11 6 9 9 11 12 6 12 14 13 12 33 42 40 36 44 26 10 12 19 20 23 26 29 34 36 36 34 30 29 40 40 38 42 43 44 41 42 42 44
12 14 14 13 18 7 18 8 12 12 8 11 13 16 18 30 33 37 36 38 28 19 18 18 24 28 32 35 36 37 36 35 32 28 33 32 35 33 34 44 49 47 45 44
15 9 16 10 18 17 15 8 10 9 21 2 14 9 14 13 37 38 41 37 35 30 27 28 30 31 34 36 38 39 39 39 37 33 35 38 41 41 47 51 52 50 48 46
12 18 14 11 10 13 3 9 13 12 13 4 11 4 8 15 18 32 39 42 40 37 32 31 34 37 39 42 43 43 44 45 43 40 38 38 38 41 38 39 45 53 50 47
3 8 10 11 4 8 2 8 7 3 2 7 10 6 9 17 14 16 31 36 39 37 36 35 37 37 37 43 49 48 48 47 49 46 43 44 44 45 43 44 54 59 56 51
6 3 8 8 9 6 15 5 5 3 3 4 6 7 7 4 10 12 25 35 36 34 34 34 36 41 45 48 54 59 61 59 56 55 52 49 51 52 52 52 57 59 58 56
3 4 3 10 7 5 9 7 7 9 4 9 6 3 7 14 17 23 28 32 32 32 35 40 48 55 58 61 63 64 65 65 64 63 62 59 59 59 59 59 61 58 63 61
7 9 10 20 8 5 9 3 6 7 6 7 7 10 5 16 35 32 27 24 28 32 40 47 52 57 62 68 71 73 75 76 73 69 67 67 66 65 67 65 66 67 67 65
9 5 4 10 7 6 8 6 4 5 2 4 7 2 4 12 17 21 20 28 31 31 47 54 60 64 69 71 71 73 74 72 71 72 72 71 69 69 71 72 71 73 71 69
3 7 1 1 2 6 3 2 6 4 7 10 10 8 9 9 1 9 20 25 28 36 47 59 66 69 71 70 68 69 69 73 75 74 75 80 82 79 77 77 79 77 74 69
5 5 5 3 6 7 2 2 4 2 3 6 8 10 6 9 7 2 17 22 21 36 51 63 68 72 72 71 74 77 79 81 81 81 81 78 76 77 83 82 81 81 76 71
3 2 7 11 5 5 2 6 8 6 11 8 5 13 3 13 13 9 13 21 20 35 52 66 73 75 77 78 81 82 82 85 89 89 86 84 80 73 77 83 84 80 78 72
3 3 7 9 3 2 6 9 7 4 0 14 5 14 9 9 12 14 24 32 26 38 55 76 78 76 77 82 88 90 91 95 98 101 100 92 87 80 70 76 80 77 72 69
3 5 12 11 11 4 8 9 12 12 5 9 24 24 3 7 6 28 42 41 31 42 57 71 78 83 86 91 97 96 92 92 94 99 104 101 92 89 79 63 69 71 57 57
1 7 6 11 13 9 9 17 13 19 21 13 38 8 4 4 14 35 47 38 41 49 59 75 86 87 89 94 91 87 92 93 94 99 98 100 86 81 83 73 62 68 71 55
4 7 2 10 15 6 13 36 21 25 29 27 38 39 3 13 28 36 49 38 40 48 67 85 86 85 90 88 88 88 90 92 94 92 94 91 88 79 76 67 57 56 60 59
5 2 3 11 5 12 13 14 11 9 8 10 7 11 6 10 25 44 52 34 38 60 79 78 80 84 83 82 80 82 87 92 90 88 89 85 84 83 80 70 59 63 66 57
7 4 2 8 9 1 12 7 3 10 8 4 2 3 8 17 30 44 24 40 64 75 75 75 81 79 78 78 78 77 85 86 85 87 86 85 81 83 81 76 73 73 69 57
6 1 5 3 5 16 7 6 4 3 0 5 1 4 18 30 39 24 31 52 65 72 69 75 72 76 77 79 74 79 81 79 80 83 86 89 84 82 77 74 74 73 71 66
5 5 6 2 4 11 2 8 5 8 7 8 5 14 23 33 15 20 53 65 68 66 75 78 73 74 79 75 74 77 77 76 78 84 86 85 81 78 74 69 70 67 63 58
6 5 10 13 10 16 6 9 5 5 5 6 8 17 26 16 29 60 71 69 73 77 83 75 76 77 80 74 73 72 76 77 79 82 84 82 78 77 71 64 61 51 44 32
14 13 9 3 5 17 8 6 10 6 8 6 15 26 35 42 54 60 63 67 77 81 83 78 72 79 81 77 72 72 76 80 81 83 80 79 77 73 71 63 58 45 41 40
5 14 8 17 12 8 10 8 8 4 6 14 23 34 44 52 59 67 70 74 77 77 80 79 76 80 80 76 71 71 82 79 83 84 82 78 75 72 67 68 61 53 50 48
8 9 6 7 1 12 11 7 1 10 13 22 33 45 52 59 67 73 73 75 79 80 81 81 79 82 81 79 77 80 83 78 82 84 83 80 75 76 72 62 57 55 53 51
6 13 8 9 4 12 10 10 8 17 26 33 44 52 58 63 70 70 72 75 76 79 83 84 79 82 85 82 88 91 86 86 86 85 82 79 76 74 73 67 58 53 50 46
21 10 8 6 13 10 8 3 16 25 32 46 54 62 62 60 64 67 73 78 83 87 92 94 88 83 84 81 91 94 97 91 86 86 83 78 77 74 72 71 72 58 49 45
Wind_Direction_500mb
41 57 43 17 12 317 320 340 345 11 47 352 343 340 33 38 46 40 35 45 63 59 346 346 352 346 337 336 337 335 332 326 314 293 289 293 293 296 291 286 282 283 285 283
51 58 3 312 360 2 11 345 359 289 34 344 347 327 59 58 62 53 48 39 34 34 44 12 341 347 350 350 349 347 345 341 332 306 296 277 266 266 269 282 288 290 289 285
70 12 324 359 28 6 55 26 352 311 327 195 318 150 93 91 73 60 52 47 45 34 18 5 358 353 353 356 357 355 352 349 343 328 308 297 289 281 282 287 284 283 284 284
57 5 19 31 66 360 358 7 320 323 360 294 27 198 153 132 81 65 51 44 39 34 26 10 0 357 360 358 357 357 354 350 345 336 325 312 300 289 284 298 291 286 289 286
271 8 9 52 359 329 357 329 293 350 285 21 353 62 168 127 80 60 42 41 35 31 27 19 11 2 355 351 355 357 354 351 344 339 330 317 304 292 288 278 276 279 284 283
79 43 31 332 297 256 286 335 240 278 166 15 231 110 219 82 110 78 51 40 35 30 28 24 22 21 15 13 10 6 1 356 350 339 332 321 310 304 292 281 280 282 284 283
182 43 53 359 310 216 344 2 343 346 354 226 275 350 251 106 77 60 44 36 32 33 33 28 19 16 15 12 9 6 0 356 351 344 336 326 316 308 299 291 282 276 277 276
39 333 16 347 44 331 354 48 129 267 298 299 327 256 258 112 67 61 54 41 33 30 24 21 16 12 9 6 3 360 356 350 347 342 334 326 318 309 301 294 287 279 274 272
18 297 114 46 2 18 328 39 324 80 136 43 237 247 77 95 58 50 43 30 29 29 16 17 15 11 7 2 358 353 349 346 342 337 330 323 317 310 300 294 287 281 276 271
124 315 52 158 314 44 136 356 29 5 339 296 268 270 233 215 32 359 22 16 18 16 14 13 9 5 1 356 352 348 346 343 339 334 329 326 317 308 303 294 286 281 277 270
110 103 275 116 206 181 41 42 32 60 155 234 304 263 248 142 156 272 4 9 360 11 11 7 1 357 354 352 350 346 342 336 332 328 325 323 322 313 303 296 290 281 276 268
81 127 260 229 98 9 285 221 196 146 268 232 200 269 358 128 107 51 356 355 355 4 5 0 356 353 351 348 344 341 335 329 325 322 324 325 326 319 303 295 293 291 280 272
136 257 330 310 344 272 206 202 196 83 197 214 186 265 217 133 110 14 354 354 353 351 351 353 351 348 345 341 337 331 327 327 327 327 325 324 325 327 315 298 290 288 285 277
14 275 194 213 221 135 256 219 210 159 204 261 235 275 256 281 320 352 354 353 334 335 343 344 343 342 339 337 334 334 336 335 331 329 326 325 326 323 323 309 286 279 274 273
32 240 326 273 270 204 231 251 236 210 236 232 274 262 277 291 335 342 340 340 328 334 337 340 338 335 333 333 333 335 334 333 332 329 327 328 325 323 326 321 303 292 277 258
124 264 98 275 269 323 272 262 249 232 255 257 266 277 49 345 336 334 334 328 325 332 337 332 330 330 329 329 330 330 328 330 330 331 329 327 329 326 326 325 320 301 285 269
167 192 28 264 349 324 297 239 198 204 198 161 209 227 356 306 329 331 322 332 333 332 327 325 324 323 324 324 325 325 326 328 329 330 332 330 328 327 325 326 319 311 297 276
130 122 136 270 7 39 242 123 116 200 199 171 116 236 276 304 326 321 337 343 327 322 323 318 320 320 320 320 322 325 326 329 330 331 331 329 327 321 320 322 319 315 305 277
189 185 284 271 253 286 233 129 82 28 197 94 312 310 334 331 320 315 319 319 315 318 314 317 315 318 318 321 324 325 328 332 333 333 331 332 333 331 325 318 314 312 309 293
47 40 141 116 215 264 163 137 114 137 254 118 23 329 328 331 313 308 318 315 316 315 319 318 317 316 322 324 324 325 329 331 334 334 334 332 335 333 330 326 318 314 306 296
161 181 216 228 256 279 109 142 152 89 295 106 328 310 310 304 295 302 311 316 317 318 323 321 319 319 324 322 327 323 328 331 332 332 334 336 335 337 336 331 327 318 313 301
169 161 210 182 247 278 147 130 174 93 99 336 315 316 313 306 305 309 312 314 319 321 324 324 320 323 324 326 328 324 327 330 329 330 333 335 336 335 337 336 332 324 316 306
286 199 196 182 217 131 160 137 135 62 329 321 312 313 315 314 315 316 315 318 320 322 323 325 324 322 323 325 328 323 327 329 327 325 328 332 333 334 334 333 331 324 312 301
238 194 221 39 188 161 156 152 32 321 317 310 316 321 324 320 321 319 321 322 324 325 323 323 322 321 317 322 323 325 328 329 325 323 323 326 328 331 331 330 326 323 319 306
188 143 196 260 131 131 185 214 305 298 309 317 323 323 322 321 319 322 322 322 325 325 326 325 318 316 317 320 317 320 326 328 323 320 320 320 322 325 326 326 326 318 314 308
190 198 175 236 134 104 135 189 291 312 324 325 321 319 319 320 320 320 319 323 324 324 324 324 321 316 314 310 311 319 326 326 320 316 315 315 316 317 321 323 320 319 311 303
Wind_Speed_850mb
17 18 15 16 11 6 9 9 11 12 6 12 14 13 12 33 42 40 36 44 26 10 12 19 20 23 26 29 34 36 36 34 30 29 40 40 38 42 43 44 41 42 42 44
12 14 14 13 18 7 18 8 12 12 8 11 13 16 18 30 33 37 36 38 28 19 18 18 24 28 32 35 36 37 36 35 32 28 33 32 35 33 34 44 49 47 45 44
15 9 16 10 18 17 15 8 10 9 21 2 14 9 14 13 37 38 41 37 35 30 27 28 30 31 34 36 38 39 39 39 37 33 35 38 41 41 47 51 52 50 48 46
12 18 14 11 10 13 3 9 13 12 13 4 11 4 8 15 18 32 39 42 40 37 32 31 34 37 39 42 43 43 44 45 43 40 38 38 38 41 38 39 45 53 50 47
3 8 10 11 4 8 2 8 7 3 2 7 10 6 9 17 14 16 31 36 39 37 36 35 37 37 37 43 49 48 48 47 49 46 43 44 44 45 43 44 54 59 56 51
6 3 8 8 9 6 15 5 5 3 3 4 6 7 7 4 10 12 25 35 36 34 34 34 36 41 45 48 54 59 61 59 56 55 52 49 51 52 52 52 57 59 58 56
3 4 3 10 7 5 9 7 7 9 4 9 6 3 7 14 17 23 28 32 32 32 35 40 48 55 58 61 63 64 65 65 64 63 62 59 59 59 59 59 61 58 63 61
7 9 10 20 8 5 9 3 6 7 6 7 7 10 5 16 35 32 27 24 28 32 40 47 52 57 62 68 71 73 75 76 73 69 67 67 66 65 67 65 66 67 67 65
9 5 4 10 7 6 8 6 4 5 2 4 7 2 4 12 17 21 20 28 31 31 47 54 60 64 69 71 71 73 74 72 71 72 72 71 69 69 71 72 71 73 71 69
3 7 1 1 2 6 3 2 6 4 7 10 10 8 9 9 1 9 20 25 28 36 47 59 66 69 71 70 68 69 69 73 75 74 75 80 82 79 77 77 79 77 74 69
5 5 5 3 6 7 2 2 4 2 3 6 8 10 6 9 7 2 17 22 21 36 51 63 68 72 72 71 74 77 79 81 81 81 81 78 76 77 83 82 81 81 76 71
3 2 7 11 5 5 2 6 8 6 11 8 5 13 3 13 13 9 13 21 20 35 52 66 73 75 77 78 81 82 82 85 89 89 86 84 80 73 77 83 84 80 78 72
3 3 7 9 3 2 6 9 7 4 0 14 5 14 9 9 12 14 24 32 26 38 55 76 78 76 77 82 88 90 91 95 98 101 100 92 87 80 70 76 80 77 72 69
3 5 12 11 11 4 8 9 12 12 5 9 24 24 3 7 6 28 42 41 31 42 57 71 78 83 86 91 97 96 92 92 94 99 104 101 92 89 79 63 69 71 57 57
1 7 6 11 13 9 9 17 13 19 21 13 38 8 4 4 14 35 47 38 41 49 59 75 86 87 89 94 91 87 92 93 94 99 98 100 86 81 83 73 62 68 71 55
4 7 2 10 15 6 13 36 21 25 29 27 38 39 3 13 28 36 49 38 40 48 67 85 86 85 90 88 88 88 90 92 94 92 94 91 88 79 76 67 57 56 60 59
5 2 3 11 5 12 13 14 11 9 8 10 7 11 6 10 25 44 52 34 38 60 79 78 80 84 83 82 80 82 87 92 90 88 89 85 84 83 80 70 59 63 66 57
7 4 2 8 9 1 12 7 3 10 8 4 2 3 8 17 30 44 24 40 64 75 75 75 81 79 78 78 78 77 85 86 85 87 86 85 81 83 81 76 73 73 69 57
6 1 5 3 5 16 7 6 4 3 0 5 1 4 18 30 39 24 31 52 65 72 69 75 72 76 77 79 74 79 81 79 80 83 86 89 84 82 77 74 74 73 71 66
5 5 6 2 4 11 2 8 5 8 7 8 5 14 23 33 15 20 53 65 68 66 75 78 73 74 79 75 74 77 77 76 78 84 86 85 81 78 74 69 70 67 63 58
6 5 10 13 10 16 6 9 5 5 5 6 8 17 26 16 29 60 71 69 73 77 83 75 76 77 80 74 73 72 76 77 79 82 84 82 78 77 71 64 61 51 44 32
14 13 9 3 5 17 8 6 10 6 8 6 15 26 35 42 54 60 63 67 77 81 83 78 72 79 81 77 72 72 76 80 81 83 80 79 77 73 71 63 58 45 41 40
5 14 8 17 12 8 10 8 8 4 6 14 23 34 44 52 59 67 70 74 77 77 80 79 76 80 80 76 71 71 82 79 83 84 82 78 75 72 67 68 61 53 50 48
8 9 6 7 1 12 11 7 1 10 13 22 33 45 52 59 67 73 73 75 79 80 81 81 79 82 81 79 77 80 83 78 82 84 83 80 75 76 72 62 57 55 53 51
6 13 8 9 4 12 10 10 8 17 26 33 44 52 58 63 70 70 72 75 76 79 83 84 79 82 85 82 88 91 86 86 86 85 82 79 76 74 73 67 58 53 50 46
21 10 8 6 13 10 8 3 16 25 32 46 54 62 62 60 64 67 73 78 83 87 92 94 88 83 84 81 91 94 97 91 86 86 83 78 77 74 72 71 72 58 49 45
Wind_Direction_850mb
41 57 43 17 12 317 320 340 345 11 47 352 343 340 33 38 46 40 35 45 63 59 346 346 352 346 337 336 337 335 332 326 314 293 289 293 293 296 291 286 282 283 285 283
51 58 3 312 360 2 11 345 359 289 34 344 347 327 59 58 62 53 48 39 34 34 44 12 341 347 350 350 349 347 345 341 332 306 296 277 266 266 269 282 288 290 289 285
70 12 324 359 28 6 55 26 352 311 327 195 318 150 93 91 73 60 52 47 45 34 18 5 358 353 353 356 357 355 352 349 343 328 308 297 289 281 282 287 284 283 284 284
57 5 19 31 66 360 358 7 320 323 360 294 27 198 153 132 81 65 51 44 39 34 26 10 0 357 360 358 357 357 354 350 345 336 325 312 300 289 284 298 291 286 289 286
271 8 9 52 359 329 357 329 293 350 285 21 353 62 168 127 80 60 42 41 35 31 27 19 11 2 355 351 355 357 354 351 344 339 330 317 304 292 288 278 276 279 284 283
79 43 31 332 297 256 286 335 240 278 166 15 231 110 219 82 110 78 51 40 35 30 28 24 22 21 15 13 10 6 1 356 350 339 332 321 310 304 292 281 280 282 284 283
182 43 53 359 310 216 344 2 343 346 354 226 275 350 251 106 77 60 44 36 32 33 33 28 19 16 15 12 9 6 0 356 351 344 336 326 316 308 299 291 282 276 277 276
39 333 16 347 44 331 354 48 129 267 298 299 327 256 258 112 67 61 54 41 33 30 24 21 16 12 9 6 3 360 356 350 347 342 334 326 318 309 301 294 287 279 274 272
18 297 114 46 2 18 328 39 324 80 136 43 237 247 77 95 58 50 43 30 29 29 16 17 15 11 7 2 358 353 349 346 342 337 330 323 317 310 300 294 287 281 276 271
124 315 52 158 314 44 136 356 29 5 339 296 268 270 233 215 32 359 22 16 18 16 14 13 9 5 1 356 352 348 346 343 339 334 329 326 317 308 303 294 286 281 277 270
110 103 275 116 206 181 41 42 32 60 155 234 304 263 248 142 156 272 4 9 360 11 11 7 1 357 354 352 350 346 342 336 332 328 325 323 322 313 303 296 290 281 276 268
81 127 260 229 98 9 285 221 196 146 268 232 200 269 358 128 107 51 356 355 355 4 5 0 356 353 351 348 344 341 335 329 325 322 324 325 326 319 303 295 293 291 280 272
136 257 330 310 344 272 206 202 196 83 197 214 186 265 217 133 110 14 354 354 353 351 351 353 351 348 345 341 337 331 327 327 327 327 325 324 325 327 315 298 290 288 285 277
14 275 194 213 221 135 256 219 210 159 204 261 235 275 256 281 320 352 354 353 334 335 343 344 343 342 339 337 334 334 336 335 331 329 326 325 326 323 323 309 286 279 274 273
32 240 326 273 270 204 231 251 236 210 236 232 274 262 277 291 335 342 340 340 328 334 337 340 338 335 333 333 333 335 334 333 332 329 327 328 325 323 326 321 303 292 277 258
124 264 98 275 269 323 272 262 249 232 255 257 266 277 49 345 336 334 334 328 325 332 337 332 330 330 329 329 330 330 328 330 330 331 329 327 329 326 326 325 320 301 285 269
167 192 28 264 349 324 297 239 198 204 198 161 209 227 356 306 329 331 322 332 333 332 327 325 324 323 324 324 325 325 326 328 329 330 332 330 328 327 325 326 319 311 297 276
130 122 136 270 7 39 242 123 116 200 199 171 116 236 276 304 326 321 337 343 327 322 323 318 320 320 320 320 322 325 326 329 330 331 331 329 327 321 320 322 319 315 305 277
189 185 284 271 253 286 233 129 82 28 197 94 312 310 334 331 320 315 319 319 315 318 314 317 315 318 318 321 324 325 328 332 333 333 331 332 333 331 325 318 314 312 309 293
47 40 141 116 215 264 163 137 114 137 254 118 23 329 328 331 313 308 318 315 316 315 319 318 317 316 322 324 324 325 329 331 334 334 334 332 335 333 330 326 318 314 306 296
161 181 216 228 256 279 109 142 152 89 295 106 328 310 310 304 295 302 311 316 317 318 323 321 319 319 324 322 327 323 328 331 332 332 334 336 335 337 336 331 327 318 313 301
169 161 210 182 247 278 147 130 174 93 99 336 315 316 313 306 305 309 312 314 319 321 324 324 320 323 324 326 328 324 327 330 329 330 333 335 336 335 337 336 332 324 316 306
286 199 196 182 217 131 160 137 135 62 329 321 312 313 315 314 315 316 315 318 320 322 323 325 324 322 323 325 328 323 327 329 327 325 328 332 333 334 334 333 331 324 312 301
238 194 221 39 188 161 156 152 32 321 317 310 316 321 324 320 321 319 321 322 324 325 323 323 322 321 317 322 323 325 328 329 325 323 323 326 328 331 331 330 326 323 319 306
188 143 196 260 131 131 185 214 305 298 309 317 323 323 322 321 319 322 322 322 325 325 326 325 318 316 317 320 317 320 326 328 323 320 320 320 322 325 326 326 326 318 314 308
190 198 175 236 134 104 135 189 291 312 324 325 321 319 319 320 320 320 319 323 324 324 324 324 321 316 314 310 311 319 326 326 320 316 315 315 316 317 321 323 320 319 311 303